Regional Weather Roundup
Issued by NWS

Home | Current Version | Previous Version | Graphics & Text | Print | Product List | Glossary On
Versions: 1 2 3 4 5 6 7 8 9 10 11 12 13 14 15 16 17 18 19 20 21 22 23 24 25 26 27 28 29 30 31 32 33 34 35 36 37 38 39 40 41 42 43 44 45 46 47 48 49 50
000
ASUS43 KLSX 041310
RWRMO

WEATHER SUMMARY FOR MISSOURI
NATIONAL WEATHER SERVICE SPRINGFIELD MO
800 AM CDT TUE AUG 04 2015

NOTE: "FAIR" INDICATES FEW OR NO CLOUDS BELOW 12,000 FEET WITH NO
       SIGNIFICANT WEATHER AND/OR OBSTRUCTIONS TO VISIBILITY.
       CURRENT SKY AND/OR WEATHER CONDITIONS ARE NOT AVAILABLE FOR
       CHILLICOTHE AND FARMINGTON.

MOZ001>031-035>038-043-044-053-054-041400-
...NORTHERN AND WESTERN MISSOURI...

CITY           SKY/WX    TMP DP  RH WIND       PRES   REMARKS
KANSAS CTY INT PTSUNNY   73  68  84 SE12      29.96F
KANSAS C DTWN  PTSUNNY   76  69  79 E6        29.96S
LEE`S SUMMIT   CLOUDY    73  68  84 VRB5      29.98R
ST JOSEPH      MOSUNNY   72  67  84 E6        29.97R
CHILLICOTHE      N/A     71  66  84 CALM      29.99F
KIRKSVILLE     CLOUDY    67  62  84 E9        30.00R

$$
MOZ066>068-077>081-088>096-101>105-041400-
...SOUTHWEST MISSOURI...

CITY           SKY/WX    TMP DP  RH WIND       PRES   REMARKS
SPRINGFIELD    PTSUNNY   75  69  81 S8        30.01S
JOPLIN         CLOUDY    76  67  73 S6        30.00R

$$
MOZ032>034-039>042-045>050-055>058-069>072-041400-
...CENTRAL MISSOURI...

CITY           SKY/WX    TMP DP  RH WIND       PRES   REMARKS
COLUMBIA       PTSUNNY   72  67  84 SE7       30.00R
JEFFERSON CITY CLOUDY    73  67  81 NE3       30.00R
ROLLA          MOSUNNY   74  72  93 S5        29.99S
SEDALIA        PTSUNNY   72  67  84 E6        30.00S
WHITEMAN AFB   PTSUNNY   72  68  88 E6        29.97F
WARRENSBURG    PTSUNNY   72  68  88 E5        29.97S
OSAGE BEACH    CLOUDY    72  70  94 S3        30.00R

$$
MOZ051-052-059>065-041400-
...EAST CENTRAL MISSOURI...

CITY           SKY/WX    TMP DP  RH WIND       PRES   REMARKS
ST LOUIS INTL  CLOUDY    76  65  68 E7        29.99S
SPIRIT OF STL  PTSUNNY   75  70  84 CALM      29.97S
ST CHARLES     CLOUDY    73  68  84 E3        29.97F

$$
MOZ072>076-082>087-097>100-106>115-041400-
...SOUTH CENTRAL AND SOUTHEAST MISSOURI...

CITY           SKY/WX    TMP DP  RH WIND       PRES   REMARKS
CAPE GIRARDEAU FOG       76  76 100 CALM      29.97S VSB 1/2
FARMINGTON     SUNNY     73  72  94 CALM      30.03R
POPLAR BLUFF   MOSUNNY   78  74  87 CALM      29.96S
WEST PLAINS    MOSUNNY   76  68  76 SW5       30.04R

$$


USA.gov is the U.S. government's official web portal to all federal, state and local government web resources and services.